Gloverville, SC (29828)

2:00 PM EST on January 23, 2017 (GMT -0500)
Ziegelweg | | Change Station

Elev 0 ft 33.50 °N, 81.76 °W | Updated 4 minutes ago

Overcast
Overcast
57.6 °F
Feels Like 57.6 °F
N
0.6
Wind Variable Wind from NW
Gusts 2.5 mph

Today
High -- | Low -- °F
--% Chance of Precip.
Yesterday
High -- | Low -- °F
Precip. -- in
Pressure 29.33 in
Visibility 10.0 miles
Clouds Mostly Cloudy 2200 ft
Overcast 2700 ft
Dew Point 54 °F
Humidity 86%
Rainfall 0.00 in
Snow Depth Not available.
7:28 AM 5:50 PM
Waning Crescent, 17% visible
METAR KAIK 231855Z AUTO 26012G18KT 10SM BKN022 OVC027 12/08 A2933 RMK AO2
Pressure 29.33 in
Visibility 10.0 miles
Clouds Mostly Cloudy 2200 ft
Overcast 2700 ft
Dew Point 54 °F
Humidity 86%
Rainfall 0.00 in
Snow Depth Not available.
7:28 AM 5:50 PM
Waning Crescent, 17% visible
METAR KAIK 231855Z AUTO 26012G18KT 10SM BKN022 OVC027 12/08 A2933 RMK AO2

Get Your Daily Forecast Email!

Thanks for signing up!

Be on the lookout for a verification email in your inbox.

You'll start receiving the daily forecast at 8 AM.

×

10-Day Weather Forecast

Almanac

Astronomy

Jan. 23, 2017 Rise Set
Actual Time
Civil Twilight
Nautical Twilight
Astronomical Twilight
Moon
Length of Visible Light
Length of Day
Tomorrow will be .
, % of the Moon is Illuminated

Today's Extremes

State Highs State Lows

Community

WunderPhotos

Upload Photos

1,962,540 photos uploaded!

WunderBlog® & News

Nearby

Air Quality

  Air Quality AQ Index Pollutant
Not available.

Snow Depth

Station Depth Elevation

Earthquake Activity

City Distance Mag. Time & Date
Minimum magnitude displayed is 2.5.

Coastal Water Temperatures

Place Temperature

Stations

Nearby Weather Stations

Station Location Temp. Windchill Dew Point Humidity Wind Precip. Elev Updated Type
                   

Watches & Warnings

Lake Wind Advisory
Issued: 2:37 AM EST Jan. 23, 2017 – National Weather Service

... Lake Wind Advisory now in effect until 4 am EST Tuesday...

* timing... through 400 am Tuesday.

* Winds... southwest to west 15 to 25 knots today... and west to
northwest 15 to 25 knots tonight.

* Impacts... hazardous conditions will occur on area lakes.

Precautionary/preparedness actions...

A lake Wind Advisory indicates that winds will cause rough chop
on area lakes. Small boats will be especially prone to capsizing.





Small Craft Advisory
Issued: 10:33 AM EST Jan. 23, 2017 – National Weather Service

... Small Craft Advisory remains in effect until 10 am EST
Tuesday...

* impacts... wind and or wave conditions will be hazardous to
small craft.

Precautionary/preparedness actions...

During a Small Craft Advisory... inexperienced mariners...
especially those operating smaller vessels... should avoid
navigating in hazardous conditions.